NOAA 16 DEB, 42351

Orbit data source: Space-Track

NOAA 16 DEB, 42351 is space debris in SSO originally from a launch on Thu, 21 Sep 2000 UTC launched from the Air Force Western Test Range (AFWTR). Debris objects in space refer to the collection of defunct objects orbiting the Earth. Examples of debris include non-operational satellites, rocket bodies, and fragments generated from explosions, collisions, or faulty payload assembly.

Loading next visibility...
Identifier
42351, 2000-055QT
Orbit
SSO
Country
Flag of USUS
Related business
Manufacturer
Unknown
Mission
Spacecraft
Bus & Motor
Unknown
Mass
Unknown
Launch date (UTC)
2000-09-21 (25 years ago)
Launch vehicle
Unknown
Launch site
Air Force Western Test Range (AFWTR)
Object type
Payload
Rocket body
Debris
Shape & HBR
Unknown
Radar Cross Section
Small (<0.1 m²)

Expand to show TLE details & history
Last TLE update: 2 weeks ago

TLE from 2 weeks ago
0 NOAA 16 DEB
1 42351U 00055QT  25246.11263587  .00023812  00000-0  54824-2 0  9998
2 42351  98.6861   5.9314 0034971 105.3227 255.1838 14.54958447491581
Epoch: 2025-09-03T02:42Z
TLE epoch observation values (Epoch: 2025-09-03T02:42:11.739Z)
Latitude
-0°
Longitude
-17.11171°
Altitude
718.883 km
Speed
7.493 km/s
True Right ascension
00h 23m 43s
True Declination
0° 00' 00"
Sunlit
Object was in full shadow at epoch
Visualization orbit readout
Latitude
Unknown
Longitude
Unknown
Altitude
Unknown
Speed
Unknown
Apparent Right ascension
Unknown
Apparent Declination
Unknown
Sunlit
N/A
Visualization observer readout
Local Sidereal Time
06:30:40
Azimuth
Unknown
Elevation
Unknown
Doppler factor
Unknown
Orbital elements
Apogee altitude
731.387 km
Perigee altitude
681.834 km
Semi-major axis
7,084.748 km
Eccentricity
0.0035
Inclination
98.6861°
RAAN
5.9314°
Arg. of periapsis
105.3227°
True anomaly
254.79682°
Mean anomaly
255.1838°
Eccentric anomaly
254.99027°
Mean motion
3.63962 °/min
Orbital period
98.91 mins
BSTAR
0.0054824
Loading maneuver chart data...
Computing Atmospheric mass density...
Loading historical data...
Loading historical data...
Loading historical data...
Loading historical data...
Loading historical data...
Loading historical data...
Loading historical data...

Documentation

Showing up to 5 results
|